Alliance, NE

4:15 PM MDT on August 17, 2017 (GMT -0600)
Alliance Municipal

Weather History for KAIA - June, 2013

Change the Weather History Date:

Thursday, June 20, 2013

  Actual Average Record
Temperature  
Mean Temperature 72 °F 66 °F  
Max Temperature 85 °F 82 °F 105 °F (1989)
Min Temperature 58 °F 51 °F 37 °F (1972)
Degree Days  
Heating Degree Days 0 2  
Month to date heating degree days 62 79  
Since 1 June heating degree days 62 79  
Since 1 July heating degree days 7190 7294  
Cooling Degree Days 7 3  
Month to date cooling degree days 63 42  
Year to date cooling degree days 85 52  
Since 1 June cooling degree days 63 42  
Growing Degree Days 22 (Base 50)    
Moisture  
Dew Point 60 °F    
Average Humidity 64    
Maximum Humidity 93    
Minimum Humidity 34    
Precipitation  
Precipitation T in 0.09 in 0.91 in (2003)
Month to date precipitation 0.40 2.02  
Year to date precipitation 5.72 7.53  
Sea Level Pressure  
Sea Level Pressure 29.73 in    
Wind  
Wind Speed 9 mph (ESE)    
Max Wind Speed 24 mph    
Max Gust Speed 31 mph    
Visibility 10 miles    
Events Rain , Thunderstorm    
T = Trace of Precipitation, MM = Missing Value Source: NWS Daily Summary

Daily Weather History Graph

Daily Weather History Graph

Search for Another Location

Airport or City:

Trip Planner

Search our weather history database for the weather conditions in past years. The results will help you decide how hot, cold, wet, or windy it might be!

Date:

Astronomy

Jun. 20, 2013 Rise Set
Actual Time 5:15 AM MDT 8:30 PM MDT
Civil Twilight 4:40 AM MDT 9:04 PM MDT
Nautical Twilight 3:56 AM MDT 9:49 PM MDT
Astronomical Twilight 3:02 AM MDT 10:43 PM MDT
Moon 5:33 PM MDT (6/20) 2:45 AM MDT (6/20)
Length of Visible Light 16h 24m
Length of Day
15h 14m
Waxing Gibbous, 89% of the Moon is Illuminated
Jun 20
Waxing Gibbous
Jun 23
Full
Jun 29
Last Quarter
Jul 8
New
Jul 15
First Quarter

Hourly Weather History & Observations

Time (MDT) Temp. Heat Index Dew Point Humidity Pressure Visibility Wind Dir Wind Speed Gust Speed Precip Events Conditions
12:53 AM 69.1 °F - 60.1 °F 73% 29.60 in 10.0 mi SSE 20.7 mph 32.2 mph N/A   Clear
1:53 AM 68.0 °F - 61.0 °F 78% 29.62 in 9.0 mi SSW 8.1 mph - 0.00 in Rain , Thunderstorm Light Rain
2:18 AM 66.2 °F - 62.6 °F 88% 29.77 in 10.0 mi South 11.5 mph 16.1 mph 0.00 in   Partly Cloudy
2:53 AM 66.0 °F - 61.0 °F 84% 29.62 in 10.0 mi SSE 9.2 mph - 0.00 in   Clear
3:53 AM 63.0 °F - 60.1 °F 90% 29.65 in 10.0 mi Calm Calm - N/A   Scattered Clouds
4:53 AM 59.0 °F - 57.0 °F 93% 29.67 in 10.0 mi SSW 3.5 mph - N/A   Clear
5:11 AM 60.8 °F - 60.8 °F 100% 29.81 in 10.0 mi Calm Calm - N/A   Mostly Cloudy
5:53 AM 62.1 °F - 60.1 °F 93% 29.68 in 8.0 mi East 5.8 mph - N/A   Mostly Cloudy
6:08 AM 62.6 °F - 60.8 °F 94% 29.81 in 8.0 mi East 3.5 mph - N/A   Scattered Clouds
6:53 AM 64.9 °F - 62.1 °F 90% 29.69 in 10.0 mi SE 5.8 mph - N/A   Clear
7:33 AM 66.2 °F - 62.6 °F 88% 29.84 in 10.0 mi South 6.9 mph - N/A   Partly Cloudy
7:50 AM 66.2 °F - 62.6 °F 88% 29.84 in 10.0 mi SSE 4.6 mph - N/A   Mostly Cloudy
7:53 AM 66.9 °F - 63.0 °F 87% 29.72 in 10.0 mi South 5.8 mph - N/A   Mostly Cloudy
8:02 AM 66.2 °F - 62.6 °F 88% 29.84 in 10.0 mi SSW 3.5 mph - N/A   Mostly Cloudy
8:20 AM 68.0 °F - 62.6 °F 83% 29.85 in 10.0 mi WSW 4.6 mph - N/A   Scattered Clouds
8:53 AM 71.1 °F - 62.1 °F 73% 29.72 in 10.0 mi West 6.9 mph - N/A   Partly Cloudy
9:53 AM 75.9 °F - 57.9 °F 54% 29.71 in 10.0 mi NW 9.2 mph - N/A   Clear
10:53 AM 79.0 °F - 50.0 °F 36% 29.73 in 10.0 mi North 15.0 mph 23.0 mph N/A   Clear
11:53 AM 80.1 °F - 50.0 °F 35% 29.73 in 10.0 mi NNW 16.1 mph 25.3 mph N/A   Clear
12:53 PM 81.0 °F 81.7 °F 61.0 °F 50% 29.73 in 10.0 mi North 17.3 mph 26.5 mph N/A   Clear
1:53 PM 82.9 °F - 52.0 °F 34% 29.72 in 10.0 mi NNE 17.3 mph 21.9 mph N/A   Clear
2:53 PM 84.0 °F 82.6 °F 54.0 °F 35% 29.72 in 10.0 mi North 16.1 mph 21.9 mph N/A   Clear
3:53 PM 84.9 °F 83.9 °F 57.0 °F 38% 29.72 in 10.0 mi NE 10.4 mph 17.3 mph N/A   Clear
4:53 PM 84.0 °F 83.5 °F 57.9 °F 41% 29.73 in 10.0 mi NE 9.2 mph - N/A   Clear
5:53 PM 82.9 °F 82.6 °F 57.9 °F 42% 29.72 in 10.0 mi East 8.1 mph - N/A   Clear
6:53 PM 79.0 °F - 62.1 °F 56% 29.73 in 10.0 mi East 8.1 mph - N/A   Partly Cloudy
7:53 PM 75.0 °F - 64.9 °F 71% 29.74 in 10.0 mi East 5.8 mph - N/A   Clear
8:53 PM 69.1 °F - 64.9 °F 87% 29.75 in 10.0 mi ENE 6.9 mph - N/A   Clear
9:53 PM 68.0 °F - 64.0 °F 87% 29.75 in 10.0 mi NE 8.1 mph - N/A   Clear
10:53 PM 66.0 °F - 63.0 °F 90% 29.75 in 10.0 mi ENE 8.1 mph - N/A   Clear
11:53 PM 66.9 °F - 63.0 °F 87% 29.76 in 10.0 mi East 6.9 mph - N/A   Clear